Flag for Netherlands Weather past 2 weeks in Zaandam, Netherlands

Now
43 °F

Passing clouds.


Feels Like: 33 °F
Forecast: 42 / 50 °F
Wind: 25 mph from West

Location: Amsterdam Schiphol Airport

Current Time: Mar 30, 2015 at 4:37:16 AM

Latest Report: Mar 30, 2015 at 3:55 AM


Visibility: N/A

Pressure: 29.42 "Hg

Humidity: 81%

Dew point: 37 °F

Location of ZaandamLocation

Historic Weather in Zaandam — Graph

°F

Zaandam temperature yesterday

Maximum temperature yesterday: 52 °F (at 4:55 PM)
Minimum temperature yesterday: 45 °F (at 9:25 PM)
Average temperature yesterday: 48 °F

Past Weeks' High & Low Weather Summary

 TemperatureHumidityPressure
High59 °F (Mar 17, 1:25 PM)100% (Mar 17, 4:55 AM)30.42 "Hg (Mar 17, 4:55 AM)
Low28 °F (Mar 23, 6:55 AM)48% (Mar 17, 1:55 PM)29.15 "Hg (Mar 29, 5:25 PM)
Average43 °F84%30.05 "Hg
* Reported Mar 15 2:25 AM — Mar 30 3:25 AM, Zaandam, Weather by CustomWeather, © 2015

Note: Actual official high and low records may vary slightly from our data, if they occured in-between our weather recording intervals... More about our weather records

Advertising

Zaandam weather history for previous 24 hours

 ConditionsComfort  
Time TempWeatherWind HumidityBarometerVisibility
3:25 AM
Mon, Mar 30
45 °FPassing clouds.24 mph76%29.42 "HgN/A
2:55 AM43 °FPassing clouds.24 mph81%29.42 "HgN/A
2:25 AM45 °FPassing clouds.25 mph81%29.42 "HgN/A
1:55 AM45 °FPassing clouds.23 mph81%29.39 "HgN/A
1:25 AM45 °FPassing clouds.23 mph81%29.39 "HgN/A
12:55 AM46 °FPassing clouds.21 mph76%29.36 "HgN/A
12:25 AM46 °FPassing clouds.23 mph76%29.36 "HgN/A
11:55 PM
Sun, Mar 29
46 °FPassing clouds.23 mph76%29.36 "HgN/A
11:25 PM46 °FClear.24 mph76%29.36 "Hg10 mi
10:55 PM45 °FClear.21 mph87%29.36 "Hg10 mi
10:25 PM45 °FPassing clouds.21 mph87%29.33 "HgN/A
9:55 PM45 °FPassing clouds.21 mph87%29.33 "HgN/A
9:25 PM45 °FPassing clouds.22 mph87%29.33 "HgN/A
8:55 PM46 °FBroken clouds.23 mph82%29.30 "HgN/A
8:25 PM46 °FBroken clouds.26 mph87%29.27 "HgN/A
7:55 PM46 °FBroken clouds.30 mph87%29.24 "HgN/A
7:25 PM46 °FBroken clouds.28 mph87%29.21 "HgN/A
6:55 PM48 °FScattered clouds.35 mph87%29.18 "HgN/A
6:25 PM48 °FSprinkles. Broken clouds.32 mph94%29.15 "HgN/A
5:55 PM52 °FBroken clouds.39 mph88%29.15 "Hg5 mi
5:25 PM52 °FSprinkles. Broken clouds.38 mph88%29.15 "Hg5 mi
4:55 PM52 °FBroken clouds.37 mph88%29.18 "Hg6 mi
4:25 PM50 °FRain. Broken clouds.35 mph100%29.21 "Hg2 mi
3:55 PM50 °FRain. Broken clouds.36 mph94%29.21 "Hg3 mi
3:25 PM50 °FRain. Partly sunny.30 mph94%29.27 "Hg4 mi
2:55 PM50 °FDrizzle. Partly sunny.25 mph94%29.30 "Hg6 mi
2:25 PM48 °FRain. Mostly cloudy.15 mph100%29.33 "Hg4 mi
1:55 PM48 °FRain. Partly sunny.10 mph94%29.36 "Hg6 mi
1:25 PM48 °FLight rain. Mostly cloudy.15 mph87%29.39 "HgN/A
12:55 PM48 °FDrizzle. Partly sunny.21 mph87%29.45 "Hg5 mi
12:25 PM48 °FDrizzle. Partly sunny.23 mph87%29.47 "HgN/A
11:55 AM48 °FDrizzle. Partly sunny.24 mph94%29.47 "Hg6 mi
11:25 AM48 °FDrizzle. Broken clouds.25 mph94%29.50 "Hg6 mi
10:55 AM50 °FLight rain. Partly sunny.25 mph82%29.50 "HgN/A
10:25 AM50 °FPassing clouds.24 mph82%29.53 "HgN/A
9:55 AM50 °FPassing clouds.25 mph82%29.53 "HgN/A
9:25 AM50 °FPassing clouds.24 mph82%29.56 "HgN/A
8:55 AM50 °FPassing clouds.25 mph82%29.56 "HgN/A
8:25 AM48 °FScattered clouds.28 mph87%29.56 "HgN/A
7:55 AM48 °FPassing clouds.25 mph87%29.56 "HgN/A
7:25 AM48 °FPassing clouds.25 mph87%29.59 "HgN/A
6:55 AM48 °FPassing clouds.23 mph87%29.59 "HgN/A
6:25 AM48 °FPassing clouds.24 mph87%29.59 "HgN/A
5:55 AM48 °FPassing clouds.23 mph87%29.59 "HgN/A
5:25 AM48 °FPartly cloudy.24 mph87%29.62 "HgN/A
4:55 AM48 °FPartly cloudy.24 mph87%29.62 "HgN/A
4:25 AM48 °FPassing clouds.23 mph87%29.62 "HgN/A
Weather by CustomWeather, © 2015

See weather overviewHow to use our weather pages